| time (UTC) | temp F | wind direction | speed MPH | gust MPH | rain 1hr in | rain 24hr in | rain mn in | humidity % | barometer mb |
| 20260901135111 | 65 | 0 | 0.0 | 0.0 | 0.00 | 0.00 | 0.00 | 100 | 1017.6 |
| 20260901133110 | 64 | 0 | 0.0 | 0.0 | 0.00 | 0.00 | 0.00 | 100 | 1017.5 |
| 20260901124606 | 60 | 0 | 0.0 | 0.0 | 0.00 | 0.00 | 0.00 | 100 | 1017.0 |
| 20260901120055 | 59 | 0 | 0.0 | 0.0 | 0.00 | 0.00 | 0.00 | 100 | 1016.5 |
| 20260901115554 | 59 | 0 | 0.0 | 0.0 | 0.00 | 0.00 | 0.00 | 100 | 1016.5 |
| 20260901110550 | 61 | 0 | 0.0 | 0.0 | 0.00 | 0.00 | 0.00 | 100 | 1015.9 |
| 20260901110050 | 60 | 0 | 0.0 | 0.0 | 0.00 | 0.00 | 0.00 | 100 | 1015.9 |
| 20260901104049 | 61 | 0 | 0.0 | 0.0 | 0.00 | 0.00 | 0.00 | 100 | 1016.0 |
| 20260901103048 | 61 | 0 | 0.0 | 0.0 | 0.00 | 0.00 | 0.00 | 100 | 1016.1 |
| 20260901102047 | 60 | 0 | 0.0 | 0.0 | 0.00 | 0.00 | 0.00 | 100 | 1016.1 |
| 20260901095046 | 61 | 0 | 0.0 | 0.0 | 0.00 | 0.00 | 0.00 | 100 | 1015.7 |
| 20260901092544 | 61 | 0 | 0.0 | 0.0 | 0.00 | 0.00 | 0.00 | 100 | 1015.6 |
| 20260901091037 | 61 | 0 | 0.0 | 0.0 | 0.00 | 0.00 | 0.00 | 100 | 1015.4 |
| 20260901083030 | 61 | 0 | 0.0 | 0.0 | 0.00 | 0.00 | 0.00 | 100 | 1015.3 |
| 20260901082029 | 62 | 0 | 0.0 | 0.0 | 0.00 | 0.00 | 0.00 | 100 | 1015.3 |
| 20260901081530 | 62 | 0 | 0.0 | 0.0 | 0.00 | 0.00 | 0.00 | 100 | 1015.4 |
| 20260901074521 | 62 | 0 | 0.0 | 0.0 | 0.00 | 0.00 | 0.00 | 100 | 1015.5 |
| 20260901073520 | 63 | 0 | 0.0 | 0.0 | 0.00 | 0.00 | 0.00 | 99 | 1015.6 |
| 20260901064507 | 63 | 0 | 0.0 | 0.0 | 0.00 | 0.00 | 0.00 | 97 | 1016.1 |
| 20260901062503 | 64 | 0 | 0.0 | 0.0 | 0.00 | 0.00 | 0.00 | 97 | 1016.1 |
| 20260901061958 | 64 | 0 | 0.0 | 0.0 | 0.00 | 0.00 | 0.00 | 96 | 1016.1 |
| 20260901061457 | 64 | 0 | 0.0 | 0.0 | 0.00 | 0.00 | 0.00 | 96 | 1016.0 |
| 20260901043936 | 66 | 0 | 0.0 | 0.0 | 0.00 | 0.00 | 0.00 | 91 | 1015.6 |
| 20260901034933 | 68 | 0 | 0.0 | 0.0 | 0.00 | 0.00 | 0.00 | 88 | 1015.5 |
| 20260901023428 | 70 | 0 | 0.0 | 0.0 | 0.00 | 0.00 | 0.00 | 82 | 1015.1 |
| 20260901020426 | 71 | 0 | 0.0 | 0.0 | 0.00 | 0.00 | 0.00 | 80 | 1014.9 |
| 20260901013424 | 73 | 0 | 0.0 | 0.0 | 0.00 | 0.00 | 0.00 | 77 | 1014.5 |
| 20260901005914 | 75 | 0 | 0.0 | 0.0 | 0.00 | 0.00 | 0.00 | 69 | 1014.4 |
| 20260901002912 | 78 | 0 | 0.0 | 0.0 | 0.00 | 0.00 | 0.00 | 62 | 1014.3 |
| 20260901000413 | 80 | 0 | 0.0 | 0.0 | 0.00 | 0.00 | 0.00 | 60 | 1014.1 |
| 20260831234401 | 82 | 0 | 0.0 | 0.0 | 0.00 | 0.00 | 0.00 | 57 | 1014.1 |
| 20260831223356 | 86 | 7 | 5.0 | 7.0 | 0.00 | 0.00 | 0.00 | 40 | 1014.0 |
| 20260831222355 | 86 | 21 | 5.0 | 7.0 | 0.00 | 0.00 | 0.00 | 40 | 1014.0 |
| 20260831221855 | 86 | 330 | 7.0 | 10.0 | 0.00 | 0.00 | 0.00 | 40 | 1014.0 |
| 20260831215354 | 87 | 304 | 6.0 | 8.0 | 0.00 | 0.00 | 0.00 | 37 | 1013.9 |
| 20260831212352 | 88 | 322 | 8.0 | 11.0 | 0.00 | 0.00 | 0.00 | 35 | 1013.7 |
| 20260831211351 | 87 | 326 | 4.0 | 6.0 | 0.00 | 0.00 | 0.00 | 34 | 1013.6 |
| 20260831210351 | 87 | 319 | 5.0 | 7.0 | 0.00 | 0.00 | 0.00 | 33 | 1013.7 |
| 20260831205850 | 86 | 319 | 8.0 | 13.0 | 0.00 | 0.00 | 0.00 | 34 | 1013.3 |
| 20260831204349 | 86 | 322 | 7.0 | 11.0 | 0.00 | 0.00 | 0.00 | 41 | 1013.8 |
| 20260831202348 | 86 | 359 | 6.0 | 7.0 | 0.00 | 0.00 | 0.00 | 41 | 1013.8 |
| 20260831201348 | 86 | 332 | 7.0 | 9.0 | 0.00 | 0.00 | 0.00 | 40 | 1013.8 |
| 20260831195346 | 86 | 311 | 9.0 | 14.0 | 0.00 | 0.00 | 0.00 | 39 | 1013.4 |
| 20260831194346 | 86 | 305 | 10.0 | 16.0 | 0.00 | 0.00 | 0.00 | 39 | 1013.3 |
| 20260831191843 | 86 | 21 | 5.0 | 8.0 | 0.00 | 0.00 | 0.00 | 40 | 1013.6 |
| 20260831191343 | 86 | 309 | 8.0 | 11.0 | 0.00 | 0.00 | 0.00 | 42 | 1013.6 |
| 20260831190841 | 86 | 349 | 9.0 | 11.0 | 0.00 | 0.00 | 0.00 | 41 | 1013.6 |
| 20260831190341 | 85 | 322 | 6.0 | 10.0 | 0.00 | 0.00 | 0.00 | 46 | 1013.6 |
| 20260831183836 | 85 | 307 | 8.0 | 12.0 | 0.00 | 0.00 | 0.00 | 46 | 1013.3 |
| 20260831162536 | 77 | 315 | 6.0 | 7.0 | 0.00 | 0.00 | 0.00 | 82 | 1013.8 |
| 20260831161035 | 76 | 314 | 8.0 | 11.0 | 0.00 | 0.00 | 0.00 | 87 | 1013.7 |
| 20260831152533 | 74 | 323 | 6.0 | 7.0 | 0.00 | 0.00 | 0.00 | 94 | 1013.3 |
| 20260831152032 | 74 | 288 | 8.0 | 12.0 | 0.00 | 0.00 | 0.00 | 95 | 1013.2 |
| 20260831151531 | 74 | 335 | 7.0 | 11.0 | 0.00 | 0.00 | 0.00 | 96 | 1013.0 |
| 20260831150530 | 74 | 342 | 8.0 | 12.0 | 0.00 | 0.00 | 0.00 | 96 | 1012.9 |
| 20260831150030 | 74 | 290 | 8.0 | 16.0 | 0.00 | 0.00 | 0.00 | 97 | 1012.8 |
| 20260831145530 | 74 | 308 | 9.0 | 14.0 | 0.00 | 0.00 | 0.00 | 97 | 1012.7 |
| 20260831145029 | 74 | 305 | 8.0 | 11.0 | 0.00 | 0.00 | 0.00 | 98 | 1012.6 |
| 20260831144529 | 75 | 308 | 11.0 | 16.0 | 0.00 | 0.00 | 0.00 | 98 | 1012.4 |
| 20260831144029 | 75 | 13 | 8.0 | 10.0 | 0.00 | 0.00 | 0.00 | 100 | 1012.4 |
| 20260831143529 | 74 | 328 | 9.0 | 16.0 | 0.00 | 0.00 | 0.00 | 100 | 1012.4 |
| 20260831142528 | 74 | 309 | 9.0 | 14.0 | 0.00 | 0.00 | 0.00 | 100 | 1012.4 |
| 20260831140027 | 73 | 322 | 5.0 | 7.0 | 0.00 | 0.00 | 0.00 | 100 | 1012.1 |